[[{"header":{"parameterUnit":"m.s-1","parameterCategory":1,"la1":30.2991,"la2":30.254,"lo1":-89.0895,"lo2":-89.0444,"dy":0.0017,"dx":0.0017,"nx":28,"ny":28,"refTime":"2025-11-21T03:00:00:Z","depth":0,"parameterNumber":2,"parameterNumberName":"U-component_of_WINDS"},"data":[0,0,0,0,0,0,0,0,0,0,0,0,0,0,0,0,0,0,0,0,0,0,0,0,0,0,0,0,0,0,0,0,0,0,0,0,0,0,0,0,0,0,0,0,0,0,0,0,0,0,0,0,0,0,0,0,0,0,1.8886,1.8887,0,1.8934,1.8934,1.8935,1.8953,1.8953,1.8952,1.8952,1.9001,1.9002,1.9003,0,0,0,0,0,0,0,0,0,0,0,0,0,1.8813,1.8815,1.8886,1.8887,1.8887,1.8934,1.8934,1.8935,1.8953,1.8953,1.8952,1.8952,1.9,1.9002,1.9004,0,0,0,0,0,0,0,0,0,0,0,0,0,1.8851,1.8815,1.8886,1.8902,1.8904,1.8934,1.8934,1.8935,1.8953,1.8953,1.8952,1.8952,1.9,1.9002,1.9004,1.9021,0,0,1.901,1.9011,0,0,0,0,0,0,0,0,1.8849,1.8854,1.8899,1.8901,1.8903,1.8937,1.8926,1.8964,1.8953,1.8934,1.8952,1.8952,1.898,1.8983,1.8993,1.9024,1.9026,1.9011,1.9012,1.9013,1.9013,0,0,0,0,0,0,0,1.8847,1.8852,1.8905,1.89,1.8902,1.8907,1.8913,1.8934,1.8958,1.8936,1.8937,1.8943,1.8981,1.8991,1.8994,1.9026,1.901,1.9012,1.9014,1.9015,1.9078,1.9079,0,0,0,0,0,0,1.8841,1.885,1.8904,1.8906,1.8875,1.8909,1.8915,1.8926,1.8957,1.8962,1.8943,1.8943,1.8987,1.8992,1.8996,1.9021,1.9013,1.9015,1.9016,1.9078,1.9078,1.9079,0,0,0,0,0,0,1.8839,1.8846,1.8902,1.8879,1.8886,1.891,1.8923,1.8927,1.8937,1.8963,1.8967,1.8948,1.8987,1.8993,1.9016,1.9022,1.9016,1.9018,1.9077,1.9078,1.9079,1.9069,0,0,0,0,0,0,1.8837,1.8845,1.8851,1.8879,1.8887,1.892,1.8924,1.8929,1.8941,1.8942,1.8969,1.8973,1.8987,1.9013,1.9018,1.9025,1.9019,1.9077,1.9078,1.9078,1.9069,1.9069,1.9069,0,0,0,0,0,1.8835,1.8845,1.8851,1.8858,1.8895,1.892,1.8925,1.8941,1.8941,1.8948,1.8965,1.8972,1.9021,1.9015,1.9021,1.9029,1.9076,1.9077,1.9078,1.9068,1.9069,1.9069,0,0,0,0,0,0,1.8817,1.8849,1.8856,1.8876,1.8895,1.8923,1.8932,1.8941,1.896,1.896,1.898,1.8986,1.9008,1.9021,1.9013,1.905,1.9049,1.9052,1.904,1.9041,1.9041,1.9037,1.9021,0,0,0,0,0,1.8816,1.8833,1.886,1.8875,1.8885,1.8907,1.8918,1.8929,1.895,1.8958,1.8977,1.8997,1.9017,1.903,1.9049,1.9071,1.9079,1.908,1.9081,1.9081,1.9082,1.9098,1.91,1.9082,1.9082,1.9082,0,0,1.8812,1.8832,1.8841,1.8872,1.8889,1.8907,1.8913,1.8932,1.8946,1.8961,1.8984,1.8999,1.9023,1.9046,1.9057,1.9058,1.909,1.9082,1.9082,1.9083,1.9099,1.9101,1.9102,1.9082,1.9082,1.9082,0,0,1.8816,1.8832,1.8848,1.8865,1.889,1.8905,1.8909,1.8937,1.8947,1.8971,1.8984,1.9002,1.9035,1.9053,1.9066,1.9082,1.909,1.9088,1.9089,1.9104,1.9106,1.9107,1.9114,1.9116,1.9089,1.9089,1.9089,0,1.8809,1.8836,1.8855,1.8873,1.8888,1.8904,1.8921,1.8937,1.8967,1.8977,1.8977,1.9022,1.9039,1.9068,1.9073,1.9082,1.9089,1.9084,1.9104,1.9105,1.9107,1.9114,1.9116,1.9089,1.9089,1.9089,1.9089,0,1.8827,1.8847,1.8856,1.8887,1.8902,1.892,1.8942,1.8956,1.8967,1.8983,1.9009,1.9031,1.9057,1.9065,1.9074,1.9096,1.9096,1.91,1.91,1.9108,1.9115,1.9118,1.9088,1.9088,1.9089,1.9089,0,0,1.8818,1.8861,1.8864,1.888,1.8911,1.8927,1.8947,1.8973,1.8985,1.9007,1.9025,1.9055,1.906,1.9075,1.9088,1.9101,1.9115,1.9104,1.9105,1.9106,1.9143,1.9139,1.9142,1.9121,1.9122,1.9122,1.9141,0,1.8826,1.8862,1.8881,1.8909,1.8929,1.8947,1.8965,1.8986,1.9003,1.9023,1.9041,1.9063,1.9067,1.9077,1.909,1.911,1.9122,1.9109,1.9139,1.914,1.9132,1.9145,1.9141,1.9158,1.9144,1.9144,1.9144,0,1.884,1.8863,1.8893,1.8925,1.8934,1.895,1.8977,1.8996,1.9022,1.9033,1.9052,1.9066,1.909,1.9089,1.9123,1.9114,1.9128,1.914,1.9141,1.9144,1.9142,1.915,1.9163,1.9166,1.9149,1.9148,1.9148,0,1.8832,1.887,1.8894,1.8907,1.8944,1.8955,1.8971,1.8998,1.9013,1.9038,1.9049,1.9075,1.909,1.9111,1.9133,1.913,1.9165,1.9166,1.9176,1.9176,1.9182,1.9181,1.9199,1.9191,1.9191,1.9191,1.9191,0,1.8839,1.8857,1.8891,1.8906,1.8928,1.8951,1.8973,1.899,1.9014,1.9034,1.9051,1.907,1.9096,1.9119,1.9136,1.9163,1.9169,1.918,1.9184,1.9178,1.9177,1.9187,1.9187,1.9191,1.9191,1.9191,1.9191,0,1.8833,1.8856,1.8884,1.8918,1.8928,1.8943,1.8973,1.8989,1.9008,1.9032,1.904,1.9069,1.9097,1.9121,1.9156,1.9168,1.9196,1.9201,1.9187,1.919,1.9199,1.9198,1.9224,1.9229,1.9217,1.9217,1.9217,0,1.8835,1.885,1.8887,1.8902,1.8918,1.8942,1.8959,1.8983,1.9,1.9034,1.9046,1.9076,1.91,1.9144,1.9169,1.9197,1.9203,1.9211,1.9208,1.9202,1.9205,1.9204,1.9206,1.921,1.921,1.921,1.921,0,1.8838,1.885,1.8874,1.8903,1.8923,1.8947,1.8971,1.8982,1.9012,1.9031,1.9059,1.9079,1.9117,1.9146,1.9179,1.9197,1.9209,1.9212,1.9216,1.921,1.9202,1.9207,1.9188,1.921,1.921,1.921,1.921,1.921,1.8837,1.8852,1.8882,1.8909,1.893,1.8953,1.8971,1.8993,1.9018,1.9051,1.9065,1.9095,1.9125,1.9169,1.9188,1.9213,1.9215,1.922,1.9222,1.9223,1.9223,1.9198,1.9219,1.9219,1.9219,1.9219,1.9219,0,1.8842,1.8863,1.8887,1.8922,1.8944,1.8955,1.8984,1.9001,1.9027,1.9054,1.9079,1.9114,1.9144,1.9173,1.9205,1.9219,1.9226,1.9227,1.9226,1.923,1.9218,1.9212,1.9221,1.9221,1.9221,1.9221,1.9221,1.9221,1.8847,1.8874,1.889,1.8929,1.895,1.898,1.8996,1.9018,1.904,1.9079,1.9104,1.9123,1.9152,1.9186,1.9215,1.9223,1.9234,1.9234,1.9243,1.9231,1.9231,1.923,1.9225,1.9236,1.9236,1.9253,1.9254,1.9254]},{"header":{"parameterUnit":"m.s-1","parameterCategory":1,"la1":30.2991,"la2":30.254,"lo1":-89.0895,"lo2":-89.0444,"dy":0.0017,"dx":0.0017,"nx":28,"ny":28,"refTime":"2025-11-21T03:00:00:Z","depth":0,"parameterNumber":3,"parameterNumberName":"V-component_of_WINDS"},"data":[0,0,0,0,0,0,0,0,0,0,0,0,0,0,0,0,0,0,0,0,0,0,0,0,0,0,0,0,0,0,0,0,0,0,0,0,0,0,0,0,0,0,0,0,0,0,0,0,0,0,0,0,0,0,0,0,0,0,0.8728,0.8728,0,0.871,0.871,0.8709,0.8665,0.8664,0.8663,0.8662,0.8643,0.8644,0.8644,0,0,0,0,0,0,0,0,0,0,0,0,0,0.8723,0.8723,0.8728,0.8728,0.8728,0.871,0.871,0.8709,0.8665,0.8664,0.8663,0.8662,0.8643,0.8644,0.8644,0,0,0,0,0,0,0,0,0,0,0,0,0,0.8717,0.8723,0.8728,0.8703,0.8701,0.871,0.871,0.8709,0.8665,0.8664,0.8663,0.8661,0.8643,0.8644,0.8644,0.8676,0,0,0.8646,0.8646,0,0,0,0,0,0,0,0,0.8717,0.8717,0.8707,0.8705,0.8702,0.8688,0.8701,0.8698,0.8666,0.8679,0.8662,0.8661,0.8659,0.8659,0.8658,0.8675,0.8674,0.8646,0.8646,0.8647,0.8647,0,0,0,0,0,0,0,0.8718,0.8718,0.8721,0.8707,0.8704,0.8693,0.869,0.87,0.8677,0.8678,0.8674,0.8673,0.8658,0.8658,0.8657,0.8674,0.8646,0.8647,0.8647,0.8647,0.8713,0.8714,0,0,0,0,0,0,0.8722,0.8718,0.8721,0.872,0.8707,0.8694,0.8691,0.8694,0.8677,0.8673,0.8674,0.8671,0.8658,0.8657,0.8657,0.8691,0.8647,0.8647,0.8647,0.8712,0.8713,0.8715,0,0,0,0,0,0,0.8722,0.8723,0.8722,0.8718,0.8717,0.8695,0.8699,0.8695,0.8694,0.8674,0.867,0.8678,0.8656,0.8656,0.8671,0.869,0.8647,0.8648,0.871,0.8712,0.8714,0.8761,0,0,0,0,0,0,0.8722,0.8723,0.8735,0.8719,0.8718,0.8737,0.87,0.8695,0.8696,0.8691,0.8677,0.8673,0.8655,0.867,0.8671,0.869,0.8648,0.8708,0.8711,0.8713,0.8758,0.8765,0.8771,0,0,0,0,0,0.8722,0.875,0.8736,0.8737,0.8733,0.8739,0.8738,0.8716,0.8697,0.8709,0.8696,0.8674,0.8688,0.8672,0.8673,0.8692,0.8707,0.871,0.8713,0.8755,0.8764,0.8771,0,0,0,0,0,0,0.8769,0.8747,0.8732,0.8755,0.8749,0.8731,0.8745,0.8726,0.8725,0.8721,0.8695,0.8692,0.871,0.8702,0.8686,0.8721,0.8694,0.8697,0.8725,0.8733,0.8739,0.8741,0.8649,0,0,0,0,0,0.8782,0.8789,0.8769,0.8791,0.8789,0.8768,0.877,0.8753,0.8746,0.8743,0.8731,0.8725,0.8727,0.8729,0.8731,0.8756,0.8752,0.877,0.8776,0.8781,0.8785,0.8796,0.8804,0.8725,0.8725,0.8725,0,0,0.8809,0.8798,0.8804,0.8801,0.8794,0.8801,0.8766,0.8775,0.878,0.8745,0.8758,0.8749,0.8739,0.8759,0.8768,0.8753,0.8805,0.8785,0.879,0.879,0.88,0.8808,0.8814,0.8728,0.8727,0.8727,0,0,0.8862,0.8855,0.8872,0.8865,0.8856,0.8841,0.8845,0.8829,0.8822,0.8835,0.8808,0.8812,0.8818,0.8812,0.881,0.8858,0.8838,0.8859,0.8893,0.8904,0.891,0.8916,0.8932,0.8938,0.8863,0.8863,0.8863,0,0.8897,0.8907,0.8883,0.8894,0.8892,0.886,0.8876,0.8871,0.8863,0.8862,0.8847,0.8851,0.8843,0.8861,0.8872,0.8872,0.8875,0.8861,0.8911,0.8916,0.8921,0.8936,0.8943,0.8866,0.8865,0.8865,0.8865,0,0.895,0.8957,0.8972,0.8964,0.8964,0.8978,0.8955,0.8958,0.8941,0.8928,0.8941,0.8929,0.8927,0.893,0.8914,0.8944,0.8936,0.8916,0.8889,0.8932,0.8946,0.8951,0.8869,0.8868,0.8868,0.8867,0,0,0.9033,0.901,0.9016,0.9011,0.8997,0.9002,0.9013,0.9011,0.9013,0.9008,0.9016,0.9021,0.9002,0.8999,0.8982,0.8992,0.903,0.8971,0.897,0.8982,0.9062,0.9077,0.9084,0.9016,0.9017,0.9018,0.9062,0,0.9082,0.9101,0.9079,0.9102,0.9107,0.9076,0.9085,0.9077,0.9065,0.9067,0.9053,0.9056,0.9032,0.903,0.9038,0.9024,0.9046,0.902,0.9023,0.9024,0.9027,0.9091,0.9108,0.915,0.9068,0.9069,0.9069,0,0.9143,0.9139,0.9163,0.9146,0.9147,0.9156,0.9151,0.9154,0.9144,0.9134,0.913,0.9109,0.9118,0.9091,0.9103,0.9086,0.9085,0.9078,0.9079,0.9079,0.9049,0.9092,0.9163,0.917,0.9078,0.9077,0.9077,0,0.92,0.9201,0.9215,0.9212,0.9193,0.92,0.9192,0.918,0.9179,0.9175,0.9174,0.9171,0.9169,0.9167,0.9145,0.9127,0.9159,0.913,0.915,0.9151,0.9159,0.9158,0.923,0.9159,0.9159,0.9158,0.9158,0,0.9257,0.9273,0.9241,0.9249,0.9265,0.9239,0.9255,0.9244,0.9234,0.9239,0.9211,0.9216,0.9188,0.919,0.9173,0.9184,0.9184,0.9175,0.9171,0.9178,0.9179,0.9177,0.9174,0.916,0.916,0.9159,0.9159,0,0.9324,0.9304,0.9316,0.9296,0.9292,0.9304,0.9287,0.9293,0.9278,0.9285,0.9285,0.9262,0.9263,0.924,0.9237,0.9225,0.9244,0.9234,0.9248,0.9245,0.9266,0.9264,0.9339,0.9347,0.9271,0.9272,0.9272,0,0.9362,0.9373,0.9354,0.9355,0.9349,0.9352,0.9351,0.9325,0.9325,0.9313,0.9321,0.9319,0.9316,0.9319,0.9301,0.9298,0.9287,0.9314,0.9287,0.9293,0.9287,0.9287,0.9287,0.932,0.9321,0.9321,0.9322,0,0.9431,0.942,0.942,0.9415,0.9415,0.941,0.9404,0.9406,0.9378,0.9379,0.9379,0.9377,0.9373,0.9371,0.9364,0.9355,0.9334,0.933,0.9335,0.9342,0.935,0.9345,0.9263,0.9329,0.9328,0.9328,0.9327,0.9327,0.9485,0.9492,0.948,0.948,0.9472,0.9466,0.9471,0.9456,0.9456,0.945,0.9435,0.9438,0.9425,0.9413,0.9406,0.9407,0.9394,0.9401,0.9402,0.9404,0.9408,0.9349,0.9406,0.9406,0.9406,0.9405,0.9405,0,0.9552,0.9542,0.9542,0.9533,0.9533,0.9512,0.9504,0.9505,0.9507,0.9498,0.9495,0.9495,0.9493,0.9474,0.947,0.9474,0.9464,0.9474,0.9473,0.9471,0.9421,0.9417,0.9482,0.9482,0.9482,0.9482,0.9482,0.9482,0.9587,0.9598,0.9585,0.9592,0.9582,0.9584,0.9581,0.9575,0.9567,0.9568,0.9566,0.9554,0.954,0.9534,0.9531,0.9525,0.9525,0.9538,0.9529,0.9482,0.9475,0.9468,0.9464,0.9538,0.9538,0.9579,0.958,0.958]}]]